| time (UTC) | temp F | wind direction | speed MPH | gust MPH | rain 1hr in | rain 24hr in | rain mn in | humidity % | barometer mb |
| 20260505011004 | 74 | 328 | 21.0 | 25.0 | 0.00 | 0.00 | 0.00 | 35 | 1002.6 |
| 20260505010004 | 75 | 34 | 21.0 | 26.0 | 0.00 | 0.00 | 0.00 | 35 | 1002.5 |
| 20260505004004 | 76 | 357 | 14.0 | 22.0 | 0.00 | 0.00 | 0.00 | 35 | 1002.3 |
| 20260505003004 | 77 | 9 | 15.0 | 20.0 | 0.00 | 0.00 | 0.00 | 36 | 1002.3 |
| 20260505000004 | 79 | 333 | 17.0 | 20.0 | 0.00 | 0.00 | 0.00 | 34 | 1001.9 |
| 20260504235004 | 82 | 63 | 16.0 | 18.0 | 0.00 | 0.00 | 0.00 | 32 | 1001.9 |
| 20260504234004 | 84 | 6 | 0.0 | 0.0 | 0.00 | 0.00 | 0.00 | 26 | 1001.7 |
| 20260504233004 | 83 | 35 | 0.0 | 0.0 | 0.00 | 0.00 | 0.00 | 26 | 1001.7 |
| 20260504232004 | 84 | 0 | 0.0 | 5.0 | 0.00 | 0.00 | 0.00 | 26 | 1001.6 |
| 20260504230005 | 84 | 213 | 0.0 | 0.0 | 0.00 | 0.00 | 0.00 | 23 | 1001.6 |
| 20260504225004 | 86 | 253 | 0.0 | 0.0 | 0.00 | 0.00 | 0.00 | 22 | 1001.4 |
| 20260504224004 | 86 | 335 | 0.0 | 5.0 | 0.00 | 0.00 | 0.00 | 23 | 1001.3 |
| 20260504223004 | 85 | 307 | 0.0 | 0.0 | 0.00 | 0.00 | 0.00 | 22 | 1001.4 |
| 20260504222004 | 86 | 116 | 2.0 | 10.0 | 0.00 | 0.00 | 0.00 | 22 | 1001.2 |
| 20260504220004 | 88 | 221 | 0.0 | 9.0 | 0.00 | 0.00 | 0.00 | 22 | 1001.3 |
| 20260504215004 | 89 | 1 | 5.0 | 8.0 | 0.00 | 0.00 | 0.00 | 21 | 1001.4 |
| 20260504213005 | 88 | 321 | 2.0 | 7.0 | 0.00 | 0.00 | 0.00 | 21 | 1001.5 |
| 20260504211004 | 90 | 255 | 2.0 | 5.0 | 0.00 | 0.00 | 0.00 | 19 | 1001.7 |
| 20260504210004 | 88 | 205 | 1.0 | 9.0 | 0.00 | 0.00 | 0.00 | 21 | 1001.9 |
| 20260504205004 | 91 | 232 | 4.0 | 7.0 | 0.00 | 0.00 | 0.00 | 19 | 1001.9 |
| 20260504204004 | 90 | 342 | 1.0 | 7.0 | 0.00 | 0.00 | 0.00 | 20 | 1002.1 |
| 20260504203004 | 90 | 292 | 9.0 | 13.0 | 0.00 | 0.00 | 0.00 | 20 | 1002.1 |
| 20260504202004 | 89 | 22 | 0.0 | 7.0 | 0.00 | 0.00 | 0.00 | 20 | 1002.3 |
| 20260504200004 | 90 | 272 | 7.0 | 10.0 | 0.00 | 0.00 | 0.00 | 21 | 1002.3 |
| 20260504195004 | 90 | 359 | 9.0 | 17.0 | 0.00 | 0.00 | 0.00 | 20 | 1002.4 |
| 20260504194004 | 90 | 309 | 3.0 | 10.0 | 0.00 | 0.00 | 0.00 | 20 | 1002.4 |
| 20260504192003 | 90 | 325 | 6.0 | 9.0 | 0.00 | 0.00 | 0.00 | 22 | 1002.5 |
| 20260504191004 | 90 | 307 | 1.0 | 9.0 | 0.00 | 0.00 | 0.00 | 23 | 1002.5 |
| 20260504190004 | 90 | 266 | 7.0 | 9.0 | 0.00 | 0.00 | 0.00 | 24 | 1002.4 |
| 20260504185004 | 89 | 83 | 9.0 | 13.0 | 0.00 | 0.00 | 0.00 | 23 | 1002.5 |
| 20260504183005 | 90 | 285 | 5.0 | 9.0 | 0.00 | 0.00 | 0.00 | 22 | 1002.3 |
| 20260504181004 | 89 | 307 | 0.0 | 8.0 | 0.00 | 0.00 | 0.00 | 24 | 1002.4 |
| 20260504180004 | 89 | 261 | 2.0 | 8.0 | 0.00 | 0.00 | 0.00 | 26 | 1002.5 |
| 20260504175004 | 89 | 347 | 5.0 | 8.0 | 0.00 | 0.00 | 0.00 | 26 | 1002.6 |
| 20260504174004 | 89 | 279 | 6.0 | 9.0 | 0.00 | 0.00 | 0.00 | 28 | 1002.6 |
| 20260504173004 | 88 | 337 | 0.0 | 9.0 | 0.00 | 0.00 | 0.00 | 27 | 1002.7 |
| 20260504172004 | 88 | 270 | 2.0 | 10.0 | 0.00 | 0.00 | 0.00 | 27 | 1002.7 |
| 20260504171004 | 87 | 234 | 8.0 | 13.0 | 0.00 | 0.00 | 0.00 | 28 | 1002.7 |
| 20260504151004 | 74 | 242 | 0.0 | 6.0 | 0.00 | 0.00 | 0.00 | 46 | 1003.0 |
| 20260504082005 | 52 | 202 | 0.0 | 0.0 | 0.00 | 0.00 | 0.00 | 68 | 1004.9 |
| 20260504081005 | 53 | 202 | 0.0 | 0.0 | 0.00 | 0.00 | 0.00 | 69 | 1005.0 |
| 20260504050004 | 63 | 169 | 0.0 | 3.0 | 0.00 | 0.00 | 0.00 | 47 | 1007.0 |
| 20260504045005 | 64 | 106 | 0.0 | 8.0 | 0.00 | 0.00 | 0.00 | 46 | 1007.1 |
| 20260504044004 | 64 | 30 | 7.0 | 8.0 | 0.00 | 0.00 | 0.00 | 47 | 1006.9 |
| 20260504043004 | 64 | 90 | 1.0 | 10.0 | 0.00 | 0.00 | 0.00 | 47 | 1007.1 |
| 20260504041004 | 64 | 62 | 2.0 | 7.0 | 0.00 | 0.00 | 0.00 | 48 | 1007.4 |
| 20260504034004 | 63 | 33 | 0.0 | 0.0 | 0.00 | 0.00 | 0.00 | 49 | 1008.2 |
| 20260504033004 | 64 | 60 | 0.0 | 0.0 | 0.00 | 0.00 | 0.00 | 49 | 1008.4 |
| 20260504031004 | 66 | 210 | 0.0 | 0.0 | 0.00 | 0.00 | 0.00 | 47 | 1008.4 |
| 20260504024004 | 67 | 48 | 0.0 | 0.0 | 0.00 | 0.00 | 0.00 | 43 | 1008.3 |
| 20260504022004 | 68 | 30 | 5.0 | 8.0 | 0.00 | 0.00 | 0.00 | 43 | 1007.9 |
| 20260504021004 | 68 | 45 | 6.0 | 8.0 | 0.00 | 0.00 | 0.00 | 42 | 1007.9 |
| 20260504020004 | 69 | 22 | 6.0 | 10.0 | 0.00 | 0.00 | 0.00 | 42 | 1007.9 |
| 20260504015004 | 70 | 22 | 7.0 | 10.0 | 0.00 | 0.00 | 0.00 | 41 | 1007.7 |
| 20260504014004 | 70 | 22 | 0.0 | 6.0 | 0.00 | 0.00 | 0.00 | 40 | 1007.7 |
| 20260504013004 | 71 | 6 | 1.0 | 6.0 | 0.00 | 0.00 | 0.00 | 40 | 1007.7 |